Home > Weather > Yorkton > Past weeks

Flag for Canada Past Weather in Yorkton, Saskatchewan, Canada — Yesterday and Last 2 Weeks

Now
64 °F

Sunny.


Feels Like: 64 °F
Forecast: 58 / 80 °F
Wind: 9 mph from Southwest

Location: Yorkton

Current Time: Jul 25, 2016 at 8:13:15 AM

Latest Report: Jul 25, 2016 at 7:00 AM


Visibility: 9 mi

Pressure: 29.98 "Hg (28.25 "Hg at 505m altitude)

Humidity: 73%

Dew Point: 55 °F

Location of YorktonLocation

Past Weather in Yorkton — Graph

°F

Yorkton Temperature Yesterday

Maximum temperature yesterday: 75 °F (at 3:00 PM)
Minimum temperature yesterday: 57 °F (at 5:00 AM)
Average temperature yesterday: 67 °F

High & Low Weather Summary for the Past Weeks

 TemperatureHumidityPressure
High84 °F (Jul 19, 3:00 PM)100% (Jul 10, 7:52 AM)30.15 "Hg (Jul 10, 7:52 AM)
Low52 °F (Jul 14, 5:00 AM)34% (Jul 16, 3:00 PM)29.32 "Hg (Jul 12, 4:58 AM)
Average66 °F78%29.84 "Hg
* Reported Jul 10 7:00 AM — Jul 25 7:00 AM, Yorkton, Weather by CustomWeather, © 2016

Note: Actual official high and low records may vary slightly from our data, if they occured in-between our weather recording intervals... More about our weather records

Advertising

Yorkton Weather History for the Previous 24 Hours

Scroll right to see more
 ConditionsComfort  
Time TempWeatherWind HumidityBarometerVisibility
7:00 AM
Mon, Jul 25
64 °FSunny.9 mph73%29.98 "Hg9 mi
6:00 AM61 °FSunny.10 mph83%29.97 "Hg9 mi
5:00 AM61 °FClear.10 mph83%29.96 "Hg9 mi
4:00 AM61 °FClear.12 mph83%29.96 "Hg9 mi
3:00 AM61 °FClear.8 mph83%29.96 "Hg9 mi
2:00 AM63 °FClear.10 mph77%29.96 "Hg9 mi
1:00 AM63 °FClear.9 mph83%29.96 "Hg9 mi
12:00 AM64 °FClear.8 mph73%29.96 "Hg9 mi
11:00 PM
Sun, Jul 24
64 °FClear.8 mph78%29.96 "Hg9 mi
10:00 PM66 °FClear.7 mph73%29.96 "Hg9 mi
9:00 PM66 °FClear.6 mph73%29.95 "Hg9 mi
8:00 PM70 °FSunny.5 mph69%29.95 "Hg9 mi
7:00 PM72 °FSunny.7 mph61%29.94 "Hg9 mi
6:00 PM73 °FSunny.10 mph57%29.94 "Hg9 mi
5:00 PM75 °FSunny.15 mph54%29.95 "Hg9 mi
4:00 PM75 °FPassing clouds.15 mph54%29.94 "Hg9 mi
3:00 PM75 °FSunny.15 mph54%29.94 "Hg9 mi
2:00 PM73 °FSunny.16 mph57%29.93 "Hg9 mi
1:00 PM73 °FBroken clouds.15 mph61%29.93 "Hg9 mi
12:00 PM72 °FBroken clouds.17 mph65%29.93 "Hg9 mi
11:00 AM72 °FScattered clouds.14 mph69%29.93 "Hg9 mi
10:00 AM70 °FSunny.17 mph69%29.92 "Hg9 mi
9:00 AM66 °FSunny.14 mph78%29.91 "Hg9 mi
8:00 AM64 °FSunny.15 mph78%29.91 "Hg9 mi
Weather by CustomWeather, © 2016

See weather overviewHow to use our weather pages